Marshfield, WI

6:53 AM CDT on March 27, 2017 (GMT -0500)
Marshfield Municipal

Weather History for KMFI - April, 2014

Change the Weather History Date:

Thursday, April 24, 2014

  Actual Average Record
Temperature  
Mean Temperature 38 °F -  
Max Temperature 42 °F 60 °F 84 °F (1915)
Min Temperature 35 °F 34 °F 17 °F (1956)
Degree Days  
Heating Degree Days 26    
Moisture  
Dew Point 37 °F    
Average Humidity 88    
Maximum Humidity 96    
Minimum Humidity 72    
Precipitation  
Precipitation 0.47 in - - ()
Sea Level Pressure  
Sea Level Pressure 29.80 in    
Wind  
Wind Speed 14 mph (ESE)    
Max Wind Speed 21 mph    
Max Gust Speed 29 mph    
Visibility 4 miles    
Events Rain    
Averages and records for this station are not official NWS values.
T = Trace of Precipitation, MM = Missing Value Source: NWS Daily Summary

Daily Weather History Graph

Daily Weather History Graph

Search for Another Location

Airport or City:

Trip Planner

Search our weather history database for the weather conditions in past years. The results will help you decide how hot, cold, wet, or windy it might be!

Date:

Astronomy

Apr. 24, 2014 Rise Set
Actual Time 6:01 AM CDT 7:56 PM CDT
Civil Twilight 5:30 AM CDT 8:28 PM CDT
Nautical Twilight 4:51 AM CDT 9:06 PM CDT
Astronomical Twilight 4:10 AM CDT 9:49 PM CDT
Moon 3:25 AM CDT (4/24) 3:01 PM CDT (4/24)
Length of Visible Light 14h 58m
Length of Day
13h 55m
Waning Crescent, 24% of the Moon is Illuminated
Apr 24
Waning Crescent
Apr 29
New
May 6
First Quarter
May 14
Full
May 21
Last Quarter

Hourly Weather History & Observations

Time (CDT) Temp. Windchill Dew Point Humidity Pressure Visibility Wind Dir Wind Speed Gust Speed Precip Events Conditions
12:54 AM 37.9 °F 30.9 °F 30.9 °F 76% 30.09 in 9.0 mi SE 10.4 mph - 0.00 in Rain Light Rain
1:54 AM 37.0 °F 29.3 °F 30.0 °F 76% 30.08 in 10.0 mi ESE 11.5 mph - 0.00 in Rain Light Rain
2:16 AM 36.0 °F 27.5 °F 30.0 °F 79% 30.05 in 10.0 mi SE 12.7 mph - 0.01 in Rain Light Rain
2:42 AM 36.0 °F 27.1 °F 28.9 °F 76% 30.04 in 10.0 mi ESE 13.8 mph - 0.01 in Rain Light Rain
2:54 AM 36.0 °F 27.5 °F 28.9 °F 76% 30.06 in 10.0 mi ESE 12.7 mph - 0.01 in Rain Light Rain
3:54 AM 35.1 °F 27.4 °F 27.0 °F 72% 30.04 in 10.0 mi ESE 10.4 mph - 0.00 in Rain Light Rain
4:22 AM 35.1 °F 26.9 °F 28.0 °F 76% 29.99 in 10.0 mi ESE 11.5 mph - 0.00 in Rain Light Rain
4:54 AM 35.1 °F 27.9 °F 28.9 °F 78% 30.02 in 10.0 mi ESE 9.2 mph - 0.00 in   Overcast
5:54 AM 36.0 °F 27.5 °F 30.9 °F 82% 30.01 in 10.0 mi SE 12.7 mph - 0.00 in   Overcast
6:54 AM 36.0 °F 26.3 °F 32.0 °F 86% 30.00 in 6.0 mi ESE 16.1 mph - 0.00 in Rain Light Rain
7:02 AM 36.0 °F 27.5 °F 32.0 °F 86% 29.96 in 7.0 mi East 12.7 mph - 0.00 in Rain Light Rain
7:54 AM 36.0 °F 26.7 °F 33.1 °F 89% 29.99 in 4.0 mi ESE 15.0 mph 20.7 mph 0.03 in Rain Rain
8:54 AM 37.0 °F 27.7 °F 34.0 °F 89% 29.98 in 4.0 mi ESE 16.1 mph - 0.07 in Rain Rain
9:54 AM 37.9 °F 28.2 °F 35.1 °F 89% 29.94 in 4.0 mi ESE 18.4 mph - 0.08 in Rain Light Rain
10:54 AM 39.0 °F 30.3 °F 36.0 °F 89% 29.91 in 5.0 mi ESE 16.1 mph 24.2 mph 0.04 in Rain Light Rain
11:54 AM 39.9 °F 30.2 °F 37.0 °F 89% 29.87 in 5.0 mi ESE 20.7 mph 28.8 mph 0.02 in Rain Light Rain
12:02 PM 39.9 °F 31.8 °F 37.0 °F 89% 29.85 in 5.0 mi ESE 15.0 mph - 0.00 in Rain Light Rain
12:54 PM 41.0 °F 31.9 °F 37.9 °F 89% 29.83 in 4.0 mi ESE 19.6 mph 27.6 mph 0.03 in Rain Light Rain
1:23 PM 42.1 °F 33.6 °F 37.9 °F 85% 29.77 in 2.5 mi ESE 18.4 mph 28.8 mph 0.04 in Rain Rain
1:36 PM 42.1 °F 34.2 °F 37.9 °F 85% 29.77 in 3.0 mi ESE 16.1 mph 27.6 mph 0.05 in Rain Rain
1:54 PM 42.1 °F 33.1 °F 37.9 °F 85% 29.79 in 4.0 mi ESE 20.7 mph 28.8 mph 0.07 in Rain Light Rain
2:20 PM 42.1 °F 33.6 °F 37.9 °F 85% 29.76 in 2.5 mi ESE 18.4 mph 27.6 mph 0.03 in Rain Rain
2:31 PM 42.1 °F 33.9 °F 37.9 °F 85% 29.76 in 4.0 mi ESE 17.3 mph 25.3 mph 0.04 in Rain Rain
2:54 PM 42.1 °F 33.6 °F 37.9 °F 85% 29.78 in 3.0 mi ESE 18.4 mph 27.6 mph 0.07 in Rain Rain
3:24 PM 42.1 °F 33.1 °F 39.0 °F 89% 29.74 in 2.5 mi SE 20.7 mph 28.8 mph 0.02 in Rain Light Rain
3:54 PM 42.1 °F 33.3 °F 37.9 °F 85% 29.76 in 3.0 mi ESE 19.6 mph 27.6 mph 0.04 in Rain Light Rain
4:34 PM 42.1 °F 33.6 °F 37.9 °F 85% 29.70 in 1.8 mi ESE 18.4 mph - 0.00 in Rain Light Rain
4:47 PM 42.1 °F 34.2 °F 39.0 °F 89% 29.70 in 1.8 mi ESE 16.1 mph 26.5 mph 0.00 in Rain Light Rain
4:54 PM 42.1 °F 34.2 °F 39.0 °F 89% 29.74 in 1.5 mi ESE 16.1 mph 24.2 mph 0.01 in Rain Light Rain
4:58 PM 42.1 °F 34.2 °F 39.0 °F 89% 29.70 in 2.0 mi ESE 16.1 mph 24.2 mph 0.00 in Rain Light Rain
5:05 PM 42.1 °F 34.2 °F 39.0 °F 89% 29.70 in 3.0 mi ESE 16.1 mph - 0.00 in Rain Light Rain
5:15 PM 42.1 °F 33.9 °F 39.0 °F 89% 29.71 in 4.0 mi ESE 17.3 mph 25.3 mph 0.00 in Rain Light Rain
5:24 PM 42.1 °F 35.7 °F 39.0 °F 89% 29.71 in 1.8 mi ESE 11.5 mph 25.3 mph 0.00 in Rain Light Rain
5:41 PM 42.1 °F 34.5 °F 39.0 °F 89% 29.70 in 1.0 mi ESE 15.0 mph 25.3 mph 0.00 in Rain Light Rain
5:54 PM 42.1 °F 34.2 °F 39.0 °F 89% 29.74 in 1.0 mi ESE 16.1 mph - 0.00 in Rain Light Rain
6:19 PM 41.0 °F 33.1 °F 39.0 °F 93% 29.69 in 1.2 mi ESE 15.0 mph 20.7 mph 0.00 in Rain Light Rain
6:54 PM 42.1 °F 34.9 °F 39.0 °F 89% 29.72 in 2.0 mi ESE 13.8 mph - 0.00 in Rain Light Rain
7:08 PM 42.1 °F 34.2 °F 39.0 °F 89% 29.68 in 1.2 mi ESE 16.1 mph 23.0 mph 0.00 in Rain Light Rain
7:17 PM 42.1 °F 34.2 °F 39.0 °F 89% 29.68 in 1.0 mi ESE 16.1 mph - 0.00 in Rain Light Rain
7:50 PM 41.0 °F 33.9 °F 39.2 °F 93% 29.67 in 1.2 mi ESE 12.7 mph - 0.00 in Rain Light Rain
7:54 PM 41.0 °F 33.1 °F 39.0 °F 93% 29.71 in 1.5 mi ESE 15.0 mph - 0.00 in Rain Light Rain
8:12 PM 41.0 °F 33.5 °F 39.0 °F 93% 29.68 in 1.8 mi ESE 13.8 mph - 0.00 in Rain Light Rain
8:28 PM 41.0 °F 32.8 °F 39.0 °F 93% 29.68 in 1.8 mi ESE 16.1 mph - 0.00 in Rain Light Rain
8:47 PM 41.0 °F 33.5 °F 39.0 °F 93% 29.68 in 1.8 mi ESE 13.8 mph - 0.00 in Rain Light Rain
8:54 PM 41.0 °F 33.5 °F 39.0 °F 93% 29.71 in 1.8 mi ESE 13.8 mph - 0.00 in Rain Light Rain
9:08 PM 41.0 °F 32.8 °F 39.0 °F 93% 29.68 in 1.8 mi SE 16.1 mph 23.0 mph 0.00 in Rain Light Rain
9:18 PM 41.0 °F 34.3 °F 39.0 °F 93% 29.68 in 2.0 mi SE 11.5 mph 21.9 mph 0.00 in   Overcast
9:34 PM 41.0 °F 34.3 °F 39.0 °F 93% 29.68 in 1.8 mi SE 11.5 mph - 0.00 in Rain Light Rain
9:54 PM 41.0 °F 34.3 °F 39.0 °F 93% 29.71 in 2.0 mi SE 11.5 mph - 0.00 in Rain Light Rain
10:07 PM 41.0 °F 35.8 °F 39.0 °F 93% 29.68 in 2.0 mi SSE 8.1 mph - 0.00 in Rain Light Rain
10:33 PM 41.0 °F 35.8 °F 37.9 °F 89% 29.69 in 1.5 mi South 8.1 mph - 0.00 in Rain Light Rain
10:54 PM 41.0 °F 37.1 °F 39.9 °F 96% 29.73 in 1.5 mi South 5.8 mph - 0.00 in   Overcast
11:26 PM 41.0 °F 38.0 °F 39.0 °F 93% 29.69 in 1.0 mi SSE 4.6 mph - N/A   Overcast
11:36 PM 41.0 °F - 39.0 °F 93% 29.68 in 1.2 mi Calm Calm - N/A   Overcast
11:54 PM 41.0 °F - 39.0 °F 93% 29.71 in 1.2 mi Calm Calm - N/A   Overcast